Regional Weather Roundup
Issued by NWS

Home | Current Version | Previous Version | Text Only | Print | Product List | Glossary On
Versions: 1 2 3 4 5 6 7 8 9 10 11 12 13 14 15 16 17 18 19 20 21 22 23 24 25 26 27 28 29 30 31 32 33 34 35 36 37 38 39 40 41 42 43 44 45 46 47 48 49 50
720
ASUS43 KLSX 040510
RWRMO

WEATHER SUMMARY FOR MISSOURI
NATIONAL WEATHER SERVICE SPRINGFIELD MO
1200 AM CDT WED MAY 04 2016

NOTE: "FAIR" INDICATES FEW OR NO CLOUDS BELOW 12,000 FEET WITH NO
       SIGNIFICANT WEATHER AND/OR OBSTRUCTIONS TO VISIBILITY.
       CURRENT SKY AND/OR WEATHER CONDITIONS ARE NOT AVAILABLE FOR
       CHILLICOTHE AND FARMINGTON.

MOZ001>031-035>038-043-044-053-054-040600-
...NORTHERN AND WESTERN MISSOURI...

CITY           SKY/WX    TMP DP  RH WIND       PRES   REMARKS
KANSAS CTY INT CLEAR     54  43  66 SW8       29.91F
KANSAS C DTWN  CLEAR     56  46  69 SW5       29.90F
LEE`S SUMMIT   CLEAR     56  45  66 SW7       29.92F
ST JOSEPH      CLEAR     58  43  57 W10       29.88F
CHILLICOTHE      N/A     56  45  66 S5        29.86F
KIRKSVILLE     CLEAR     55  41  59 SW8       29.81F

$$
MOZ066>068-077>081-088>096-101>105-040600-
...SOUTHWEST MISSOURI...

CITY           SKY/WX    TMP DP  RH WIND       PRES   REMARKS
SPRINGFIELD    CLEAR     50  41  71 SW8       29.96F
JOPLIN         CLEAR     51  45  79 SW6       29.98F

$$
MOZ032>034-039>042-045>050-055>058-069>072-040600-
...CENTRAL MISSOURI...

CITY           SKY/WX    TMP DP  RH WIND       PRES   REMARKS
COLUMBIA       MOCLDY    53  44  71 SW9       29.89F
JEFFERSON CITY CLEAR     52  44  74 CALM      29.90F
ROLLA          PTCLDY    48  40  73 SW10      29.90F
SEDALIA        CLEAR     56  44  64 SW10      29.91F
WHITEMAN AFB   CLEAR     55  44  67 SW9       29.90F
WARRENSBURG    CLEAR     55  45  67 SW8       29.91F
OSAGE BEACH    CLEAR     48  37  66 CALM      29.93F

$$
MOZ051-052-059>065-040600-
...EAST CENTRAL MISSOURI...

CITY           SKY/WX    TMP DP  RH WIND       PRES   REMARKS
ST LOUIS INTL  PTCLDY    57  42  57 SW9       29.87F
SPIRIT OF STL  CLEAR     52  45  77 W6        29.87F
ST CHARLES     CLEAR     54  47  77 CALM      29.86F

$$
MOZ072>076-082>087-097>100-106>115-040600-
...SOUTH CENTRAL AND SOUTHEAST MISSOURI...

CITY           SKY/WX    TMP DP  RH WIND       PRES   REMARKS
CAPE GIRARDEAU CLEAR     49  47  93 CALM      29.93F
FARMINGTON     CLEAR     46  45  96 CALM      29.93F
POPLAR BLUFF   CLEAR     52  49  89 CALM      29.94F
WEST PLAINS    CLEAR     47  40  76 CALM      29.97F

$$




USA.gov is the U.S. government's official web portal to all federal, state and local government web resources and services.